SL-16 DEB, 22614

Orbit data source: Space-Track

SL-16 DEB, 22614 is space debris in LEO originally from a launch on Fri, 26 Mar 1993 UTC launched from the Tyuratam Missile And Space Complex (TTMTR). Debris objects in space refer to the collection of defunct objects orbiting the Earth. Examples of debris include non-operational satellites, rocket bodies, and fragments generated from explosions, collisions, or faulty payload assembly.

Loading next visibility...
Identifier
22614, 1993-016Y
Orbit
LEO
Country
Flag of CISCIS
Related business
Manufacturer
Unknown
Mission
Spacecraft
Bus & Motor
Unknown
Mass
Unknown
Launch date (UTC)
1993-03-26 (33 years ago)
Launch vehicle
Unknown
Launch site
Tyuratam Missile And Space Complex (TTMTR)
Object type
Payload
Rocket body
Debris
Shape & HBR
Unknown shape, 0.1 m
Radar Cross Section
Small (<0.1 m²)

Expand to show TLE details & history
Last TLE update: 14 hours ago

TLE from 14 hours ago
0 SL-16 DEB
1 22614U 93016Y   25295.08084522  .00000482  00000-0  40475-3 0  9993
2 22614  70.9983 224.0076 0125421 142.7887 239.3366 13.89418148647282
Epoch: 2025-10-22T01:56Z
TLE epoch observation values (Epoch: 2025-10-22T01:56:25.027Z)
Latitude
19.72196°
Longitude
171.1979°
Altitude
980.211 km
Speed
7.339 km/s
True Right ascension
15h 24m 14s
True Declination
19° 36' 59"
Sunlit
Object was in daylight at epoch
Visualization orbit readout
Latitude
Unknown
Longitude
Unknown
Altitude
Unknown
Speed
Unknown
Apparent Right ascension
Unknown
Apparent Declination
Unknown
Sunlit
N/A
Visualization observer readout
Local Sidereal Time
11:00:44
Azimuth
Unknown
Elevation
Unknown
Doppler factor
Unknown
Orbital elements
Apogee altitude
1,020.262 km
Perigee altitude
836.978 km
Semi-major axis
7,306.757 km
Eccentricity
0.01254
Inclination
70.9983°
RAAN
224.0076°
Arg. of periapsis
142.7887°
True anomaly
238.11024°
Mean anomaly
239.3366°
Eccentric anomaly
238.72243°
Mean motion
3.47501 °/min
Orbital period
103.6 mins
BSTAR
0.00040475
Loading maneuver chart data...
Computing Atmospheric mass density...
Loading historical data...
Loading historical data...
Loading historical data...
Loading historical data...
Loading historical data...
Loading historical data...
Loading historical data...

Documentation

Showing up to 5 results
|